Naples, Italy

8:51 AM CEST on September 23, 2017 (GMT +0200)
Capodichino Mil

Weather History for LIRN - November, 2013

Change the Weather History Date:

Friday, November 1, 2013

  Actual Average Record
Temperature  
Mean Temperature 68 °F -  
Max Temperature 77 °F 63 °F 84 °F (2004)
Min Temperature 59 °F 46 °F 35 °F (2004)
Cooling Degree Days 3    
Growing Degree Days 18 (Base 50)    
Moisture  
Dew Point 56 °F    
Average Humidity 71    
Maximum Humidity 83    
Minimum Humidity 47    
Precipitation  
Precipitation 0.00 in 0.21 in - ()
Sea Level Pressure  
Sea Level Pressure 30.14 in    
Wind  
Wind Speed 3 mph ()    
Max Wind Speed 7 mph    
Max Gust Speed -    
Visibility 6.2 miles    
Events      
Averages and records for this station are not official NWS values.
T = Trace of Precipitation, MM = Missing Value Source: Averaged Metar Reports

Daily Weather History Graph

Daily Weather History Graph

Search for Another Location

Airport or City:

Trip Planner

Search our weather history database for the weather conditions in past years. The results will help you decide how hot, cold, wet, or windy it might be!

Date:

Astronomy

Nov. 01, 2013 Rise Set
Actual Time 6:33 AM CET 4:58 PM CET
Civil Twilight 6:04 AM CET 5:27 PM CET
Nautical Twilight 5:32 AM CET 5:59 PM CET
Astronomical Twilight 5:00 AM CET 6:31 PM CET
Moon 4:06 AM CET (11/1) 3:42 PM CET (11/1)
Length of Visible Light 11h 22m
Length of Day
10h 25m
Waning Crescent, 5% of the Moon is Illuminated
Nov 1
Waning Crescent
Nov 3
New
Nov 10
First Quarter
Nov 17
Full
Nov 25
Last Quarter

Hourly Weather History & Observations

Time (CET) Temp. Dew Point Humidity Pressure Visibility Wind Dir Wind Speed Gust Speed Precip Events Conditions
12:20 AM 60.8 °F 55.4 °F 82% 30.15 in - North 4.6 mph - N/A   Clear
12:50 AM 62.6 °F 55.4 °F 77% 30.15 in - NNW 3.5 mph - N/A   Clear
1:20 AM 62.6 °F 55.4 °F 77% 30.15 in - North 3.5 mph - N/A   Clear
1:50 AM 60.8 °F 55.4 °F 82% 30.15 in - Variable 2.3 mph - N/A   Clear
2:20 AM 59.0 °F 53.6 °F 82% 30.15 in - NNW 3.5 mph - N/A   Clear
2:50 AM 60.8 °F 55.4 °F 82% 30.15 in - NNW 4.6 mph - N/A   Clear
3:20 AM 60.8 °F 55.4 °F 82% 30.12 in - NNW 4.6 mph - N/A   Clear
3:50 AM 60.8 °F 55.4 °F 82% 30.12 in - North 4.6 mph - N/A   Clear
4:20 AM 60.8 °F 55.4 °F 82% 30.12 in - North 4.6 mph - N/A   Clear
4:50 AM 62.6 °F 55.4 °F 77% 30.12 in - North 4.6 mph - N/A   Clear
5:20 AM 59.0 °F 53.6 °F 82% 30.12 in - NNW 3.5 mph - N/A   Clear
5:50 AM 60.8 °F 55.4 °F 82% 30.12 in - North 3.5 mph - N/A   Clear
6:20 AM 59.0 °F 53.6 °F 82% 30.12 in - NNE 4.6 mph - N/A   Clear
6:50 AM 59.0 °F 51.8 °F 77% 30.15 in - North 4.6 mph - N/A   Clear
7:20 AM 62.6 °F 53.6 °F 72% 30.15 in - North 3.5 mph - N/A   Clear
7:50 AM 62.6 °F 53.6 °F 72% 30.15 in - Variable 2.3 mph - N/A   Clear
8:20 AM 64.4 °F 53.6 °F 68% 30.15 in - NNW 5.8 mph - N/A   Clear
8:50 AM 66.2 °F 55.4 °F 68% 30.18 in - North 4.6 mph - N/A   Clear
9:20 AM 68.0 °F 55.4 °F 64% 30.18 in - NE 4.6 mph - N/A   Clear
9:50 AM 71.6 °F 57.2 °F 60% 30.18 in - Variable 3.5 mph - N/A   Clear
10:20 AM 73.4 °F 55.4 °F 53% 30.18 in - Variable 3.5 mph - N/A   Clear
10:50 AM 73.4 °F 53.6 °F 50% 30.18 in - Variable 2.3 mph - N/A   Clear
11:20 AM 75.2 °F 57.2 °F 53% 30.15 in - Variable 2.3 mph - N/A   Clear
11:50 AM 77.0 °F 55.4 °F 47% 30.15 in - Calm Calm - N/A   Clear
12:20 PM 75.2 °F 53.6 °F 47% 30.15 in 6.2 mi SSW 4.6 mph - N/A   Partly Cloudy
12:50 PM 73.4 °F 55.4 °F 53% 30.15 in 6.2 mi South 6.9 mph - N/A   Scattered Clouds
1:20 PM 71.6 °F 55.4 °F 57% 30.15 in 6.2 mi WSW 6.9 mph - N/A   Scattered Clouds
1:50 PM 71.6 °F 59.0 °F 64% 30.12 in 6.2 mi West 5.8 mph - N/A   Scattered Clouds
2:20 PM 71.6 °F 57.2 °F 60% 30.12 in 6.2 mi West 3.5 mph - N/A   Scattered Clouds
2:50 PM 71.6 °F 55.4 °F 57% 30.12 in 6.2 mi SSW 4.6 mph - N/A   Scattered Clouds
3:20 PM 69.8 °F 55.4 °F 60% 30.12 in 6.2 mi South 4.6 mph - N/A   Scattered Clouds
3:50 PM 69.8 °F 57.2 °F 64% 30.12 in 6.2 mi South 4.6 mph - N/A   Scattered Clouds
4:20 PM 69.8 °F 57.2 °F 64% 30.12 in 6.2 mi South 3.5 mph - N/A   Scattered Clouds
4:50 PM 68.0 °F 59.0 °F 73% 30.12 in 6.2 mi South 3.5 mph - N/A   Scattered Clouds
5:20 PM 68.0 °F 59.0 °F 73% 30.12 in 6.2 mi South 3.5 mph - N/A   Scattered Clouds
5:50 PM 68.0 °F 59.0 °F 73% 30.12 in 6.2 mi SSE 2.3 mph - N/A   Scattered Clouds
6:20 PM 68.0 °F 59.0 °F 73% 30.12 in 6.2 mi Variable 1.2 mph - N/A   Scattered Clouds
6:50 PM 66.2 °F 57.2 °F 73% 30.12 in 6.2 mi Variable 2.3 mph - N/A   Scattered Clouds
7:20 PM 68.0 °F 59.0 °F 73% 30.12 in 6.2 mi North 3.5 mph - N/A   Scattered Clouds
7:50 PM 66.2 °F 59.0 °F 78% 30.12 in 6.2 mi Variable 1.2 mph - N/A   Scattered Clouds
8:20 PM 66.2 °F 59.0 °F 78% 30.12 in 6.2 mi Variable 1.2 mph - N/A   Scattered Clouds
8:50 PM 66.2 °F 59.0 °F 78% 30.15 in 6.2 mi North 4.6 mph - N/A   Scattered Clouds
9:50 PM 66.2 °F 59.0 °F 78% 30.15 in - Variable 1.2 mph - N/A   Clear
10:20 PM 64.4 °F 59.0 °F 83% 30.15 in - Variable 1.2 mph - N/A   Clear
10:50 PM 64.4 °F 59.0 °F 83% 30.15 in - Calm Calm - N/A   Clear
11:20 PM 64.4 °F 57.2 °F 77% 30.15 in 6.2 mi ENE 2.3 mph - N/A   Partly Cloudy